Location: Astronomy Club of Akron Observatory
(40.9700°N, 81.5606°W)
Time: 04:15:58
(UTC-04:00)

N. Korean satellite - Pass Details

Date: 27 February 2019
Orbit: 456 x 510 km, 97.2° (Epoch: 25 March)

Event Time Altitude Azimuth Distance (km) Brightness Sun altitude
Rises 06:06:22 0° 22° (NNE) 2,486 10.5 -11.6°
Reaches altitude 10° 06:08:35 10° 33° (NNE) 1,604 9.6 -11.2°
Maximum altitude 06:11:40 30° 97° (E) 844 8.7 -10.6°
Drops below altitude 10° 06:14:42 10° 160° (SSE) 1,591 9.5 -10.0°
Sets 06:16:54 0° 172° (S) 2,462 10.3 -9.6°
